{"data":{"norad_id":57302,"epoch":"2026-09-20T22:00:03.000096Z","epoch_age_seconds":88216,"freshness":"FRESH","line1":"1 57302U 23096N   26263.91670139  .00610740  00000+0  53905-2 0  9993","line2":"2 57302  42.9990 193.7131 0001670 273.7410 103.3631 15.65997093  5898","mean_motion":15.65997093,"eccentricity":0.000167,"inclination_deg":42.999,"raan_deg":193.7131,"arg_perigee_deg":273.741,"mean_anomaly_deg":103.3631,"bstar":0.0053905,"rev_number":589,"period_min":91.954193685084,"perigee_km":369.24565505067,"apogee_km":371.49965727583,"semimajor_km":6748.5096561632,"source":"CELESTRAK","updated_at":"2026-09-21T09:00:33.595294Z"}}